WAT6763 EDDG-EDLW

Flight info

Callsign WAT6763
Flight time 0h 31m
Altitude 5000
Route DOMEG3Y/07 DOMEG DOMEG2A
Aircraft C172/L-SFG/C

Departure

Time 2026-04-27 15:51
Airport Münster Osnabrück Airport (EDDG)

Arrival

Time 2026-04-27 16:23
Airport Dortmund Airport (EDLW)
Time Latitude Longitude Altitude Speed Heading
2026-04-27 15:22 52.13106 7.68236 163 ft 0 kts 270°
2026-04-27 15:48 52.13108 7.68217 163 ft 6 kts 287°
2026-04-27 15:48 52.13158 7.68207 162 ft 9 kts 360°
2026-04-27 15:48 52.13178 7.68231 163 ft 0 kts 75°
2026-04-27 15:49 52.13219 7.68342 165 ft 9 kts 350°
2026-04-27 15:49 52.13275 7.68312 164 ft 8 kts 346°
2026-04-27 15:49 52.13325 7.68283 164 ft 5 kts 339°
2026-04-27 15:49 52.13328 7.68281 164 ft 0 kts 340°
2026-04-27 15:50 52.13385 7.68260 164 ft 14 kts 11°
2026-04-27 15:50 52.13457 7.68439 164 ft 37 kts 70°
2026-04-27 15:50 52.13594 7.69071 209 ft 72 kts 67°
2026-04-27 15:50 52.13759 7.69862 431 ft 76 kts 71°
2026-04-27 15:51 52.13893 7.70659 730 ft 72 kts 73°
2026-04-27 15:51 52.13912 7.71466 924 ft 79 kts 117°
2026-04-27 15:51 52.13345 7.71665 1009 ft 105 kts 196°
2026-04-27 15:51 52.12602 7.71270 1109 ft 116 kts 196°
2026-04-27 15:52 52.11835 7.70860 1334 ft 116 kts 196°
2026-04-27 15:52 52.11052 7.70589 1545 ft 114 kts 163°
2026-04-27 15:52 52.10310 7.70881 1780 ft 114 kts 184°
2026-04-27 15:52 52.09530 7.70681 2026 ft 111 kts 185°
2026-04-27 15:53 52.08764 7.70474 2249 ft 112 kts 187°
2026-04-27 15:53 52.07996 7.70255 2446 ft 111 kts 187°
2026-04-27 15:53 52.07237 7.70021 2656 ft 110 kts 186°
2026-04-27 15:53 52.06486 7.69787 2860 ft 109 kts 186°
2026-04-27 15:54 52.05753 7.69558 3075 ft 111 kts 187°
2026-04-27 15:54 52.05012 7.69317 3278 ft 103 kts 188°
2026-04-27 15:54 52.04321 7.69106 3471 ft 98 kts 189°
2026-04-27 15:54 52.03682 7.68907 3651 ft 90 kts 189°
2026-04-27 15:55 52.03092 7.68723 3808 ft 83 kts 187°
2026-04-27 15:55 52.02733 7.68614 3894 ft 75 kts 187°
2026-04-27 15:55 52.02090 7.68423 4076 ft 64 kts 188°
2026-04-27 15:55 52.01714 7.68390 3083 ft 78 kts 209°
2026-04-27 15:56 52.01012 7.68511 3232 ft 100 kts 178°
2026-04-27 15:56 52.00430 7.68075 3530 ft 88 kts 242°
2026-04-27 15:56 51.99964 7.67541 3677 ft 96 kts 172°
2026-04-27 15:56 51.99295 7.67430 3876 ft 99 kts 187°
2026-04-27 15:57 51.98592 7.67269 4038 ft 105 kts 188°
2026-04-27 15:57 51.97867 7.67062 4200 ft 108 kts 189°
2026-04-27 15:57 51.97124 7.66839 4366 ft 110 kts 189°
2026-04-27 15:57 51.96376 7.66608 4524 ft 109 kts 190°
2026-04-27 15:58 51.95633 7.66373 4674 ft 108 kts 191°
2026-04-27 15:58 51.94897 7.66141 4829 ft 107 kts 191°
2026-04-27 15:58 51.94168 7.65914 4983 ft 106 kts 191°
2026-04-27 15:58 51.93448 7.65689 5131 ft 105 kts 192°
2026-04-27 15:59 51.92969 7.65540 5207 ft 107 kts 192°
2026-04-27 15:59 51.91942 7.65215 5220 ft 119 kts 192°
2026-04-27 15:59 51.91117 7.64956 5246 ft 120 kts 192°
2026-04-27 15:59 51.90283 7.64695 5220 ft 125 kts 192°
2026-04-27 16:00 51.89429 7.64430 5219 ft 125 kts 192°
2026-04-27 16:00 51.88901 7.64054 5216 ft 124 kts 227°
2026-04-27 16:00 51.88646 7.62837 5422 ft 108 kts 273°
2026-04-27 16:00 51.88775 7.61634 5522 ft 110 kts 276°
2026-04-27 16:01 51.88912 7.60419 5582 ft 112 kts 252°
2026-04-27 16:01 51.88241 7.59895 5686 ft 113 kts 199°
2026-04-27 16:01 51.87500 7.59544 5803 ft 110 kts 201°
2026-04-27 16:01 51.86835 7.58996 5768 ft 100 kts 206°
2026-04-27 16:02 51.86188 7.58808 5632 ft 93 kts 183°
2026-04-27 16:02 51.85534 7.58906 5446 ft 98 kts 170°
2026-04-27 16:02 51.84866 7.59133 5291 ft 99 kts 180°
2026-04-27 16:02 51.84196 7.58959 5137 ft 98 kts 193°
2026-04-27 16:03 51.83556 7.58692 5053 ft 92 kts 197°
2026-04-27 16:03 51.82942 7.58404 4932 ft 92 kts 198°
2026-04-27 16:03 51.82358 7.58096 4927 ft 85 kts 199°
2026-04-27 16:03 51.81833 7.57733 4950 ft 80 kts 206°
2026-04-27 16:04 51.81364 7.57265 4977 ft 80 kts 214°
2026-04-27 16:04 51.80868 7.56811 4987 ft 87 kts 211°
2026-04-27 16:04 51.80356 7.56293 5052 ft 86 kts 213°
2026-04-27 16:04 51.79850 7.55761 5103 ft 86 kts 216°
2026-04-27 16:05 51.79421 7.55081 5129 ft 90 kts 226°
2026-04-27 16:05 51.78914 7.54471 5215 ft 83 kts 218°
2026-04-27 16:05 51.78398 7.54001 5225 ft 89 kts 205°
2026-04-27 16:05 51.77828 7.53632 5292 ft 88 kts 200°
2026-04-27 16:06 51.77261 7.53292 5378 ft 83 kts 178°
2026-04-27 16:06 51.76676 7.53297 5433 ft 83 kts 180°
2026-04-27 16:06 51.76075 7.53283 5418 ft 91 kts 185°
2026-04-27 16:06 51.75422 7.53191 5418 ft 95 kts 188°
2026-04-27 16:07 51.74763 7.53020 5441 ft 95 kts 190°
2026-04-27 16:07 51.74109 7.52846 5464 ft 97 kts 192°
2026-04-27 16:07 51.73466 7.52572 5541 ft 90 kts 203°
2026-04-27 16:07 51.72870 7.52193 5535 ft 96 kts 202°
2026-04-27 16:08 51.72216 7.51789 5479 ft 104 kts 202°
2026-04-27 16:08 51.71521 7.51356 5414 ft 109 kts 202°
2026-04-27 16:08 51.70800 7.50907 5351 ft 113 kts 202°
2026-04-27 16:08 51.70073 7.50415 5281 ft 114 kts 204°
2026-04-27 16:09 51.69351 7.49877 5212 ft 114 kts 206°
2026-04-27 16:09 51.67909 7.49026 5199 ft 108 kts 200°
2026-04-27 16:09 51.67215 7.48594 5198 ft 106 kts 201°
2026-04-27 16:10 51.65847 7.47746 5196 ft 105 kts 201°
2026-04-27 16:10 51.64472 7.46977 5197 ft 104 kts 200°
2026-04-27 16:11 51.63784 7.46602 5198 ft 104 kts 200°
2026-04-27 16:11 51.62418 7.45862 5197 ft 104 kts 200°
2026-04-27 16:12 51.61046 7.45120 5200 ft 104 kts 199°
2026-04-27 16:12 51.60361 7.44750 5198 ft 104 kts 199°
2026-04-27 16:12 51.58981 7.44000 4949 ft 104 kts 199°
2026-04-27 16:13 51.58299 7.43620 4736 ft 103 kts 199°
2026-04-27 16:13 51.56947 7.42840 4316 ft 104 kts 199°
2026-04-27 16:13 51.56261 7.42419 4115 ft 107 kts 199°
2026-04-27 16:14 51.54846 7.41503 3707 ft 111 kts 199°
2026-04-27 16:14 51.53422 7.40556 3309 ft 109 kts 199°
2026-04-27 16:15 51.51979 7.40063 2893 ft 107 kts 180°
2026-04-27 16:15 51.50478 7.39894 2507 ft 113 kts 179°
2026-04-27 16:16 51.48992 7.39744 2481 ft 105 kts 179°
2026-04-27 16:16 51.47503 7.39965 2471 ft 110 kts 137°
2026-04-27 16:17 51.46257 7.41432 2476 ft 112 kts 139°
2026-04-27 16:17 51.46007 7.43570 2485 ft 105 kts 79°
2026-04-27 16:18 51.46226 7.45846 2464 ft 100 kts 67°
2026-04-27 16:18 51.47107 7.47608 2411 ft 103 kts 53°
2026-04-27 16:19 51.47497 7.48582 2343 ft 103 kts 59°
2026-04-27 16:19 51.47833 7.49577 2304 ft 101 kts 68°
2026-04-27 16:20 51.48763 7.52528 1694 ft 100 kts 59°
2026-04-27 16:20 51.49051 7.53488 1546 ft 88 kts 64°
2026-04-27 16:20 51.49690 7.55285 1265 ft 94 kts 57°
2026-04-27 16:21 51.50027 7.56134 1212 ft 84 kts 57°
2026-04-27 16:21 51.50812 7.58343 808 ft 72 kts 60°
2026-04-27 16:22 51.51052 7.59016 687 ft 66 kts 59°
2026-04-27 16:22 51.51486 7.60257 515 ft 62 kts 56°
2026-04-27 16:22 51.51693 7.60832 441 ft 58 kts 53°
2026-04-27 16:23 51.51873 7.61331 414 ft 39 kts 61°
2026-04-27 16:23 51.52095 7.61971 408 ft 37 kts 60°
2026-04-27 16:23 51.52182 7.62292 405 ft 22 kts 113°
2026-04-27 16:24 51.52099 7.62394 405 ft 15 kts 140°
2026-04-27 16:24 51.51992 7.62215 408 ft 17 kts 238°
2026-04-27 16:25 51.51828 7.61753 412 ft 30 kts 240°
2026-04-27 16:25 51.51623 7.61167 419 ft 28 kts 241°
2026-04-27 16:26 51.51488 7.60990 430 ft 14 kts 241°
2026-04-27 16:26 51.51346 7.60594 439 ft 18 kts 243°
2026-04-27 16:27 51.51188 7.60157 450 ft 11 kts 191°
2026-04-27 16:27 51.51202 7.60376 456 ft 2 kts 104°
2026-04-27 16:28 51.51198 7.60397 458 ft 0 kts 106°